www.pogodaiklimat.ru

Погода и климат >> Архив погоды >> Вьетнам >> Куангнгай


ПОГОДА в Куангнгае

  • Прогноз погоды в Куангнгае
  • Монитор погоды в Куангнгае

АРХИВ ПОГОДЫ в Куангнгае

Время (UTC), дата Ветер
(напр.,м/с)
 
Видим.   Явления Облачность Т
(С)
Тd
(С)
f
(%)
Тe
(С)
Тes
(С)
Комфортность P
(гПа)
Po
(гПа)
Тmin
(С)
Tmax
(С)
R
(мм)
R24
(мм)
S
(см)
00 13.09 СЗ 1 10 км в посл. час ливневой дождь 9/9 600 м
[Cu Sc]
+26.1 +24.9 93 +37 +37 очень
душно
1008.7 1007.6 +25.5 0.4
03 13.09 СЗ 1 20 км 9/9 600 м
[Cu Sc]
+28.3 +25.1 83 +41 +43 опасность
перегрева
1009.3 1008.2
06 13.09 З 1 10 км в посл. час ливневой дождь 9/9 600 м
[Cu Sc]
+29.1 +26.0 83 +44 +46 опасность
перегрева
1007.2 1006.1 3
09 13.09 С 1 4000 м слаб. дождь 10/10 600 м
[Cu Sc]
+27.1 +25.1 89 +39 +39 очень
душно
1006.9 1005.8
12 13.09 штиль 0 10 км {дождь} 10/10 600 м
[Cu Sc]
+26.4 +25.1 93 +38 +38 очень
душно
1007.9 1006.8 +30.2 6
15 13.09 штиль 0 10 км слаб. дождь 10/10 600 м
[Cu Sc]
+25.9 +24.7 93 +37 +37 очень
душно
1009.1 1008.0
18 13.09 штиль 0 10 км {дождь} 9/9 600 м
[Cu Sc]
+25.7 +24.5 93 +36 +36 очень
душно
1007.4 1006.3 0.0
21 13.09 штиль 0 10 км 9/3 1230 м
[Sc Cs]
+24.9 +24.1 95 +34 +34 очень
душно
1006.7 1005.6
00 14.09 З 1 20 км 9/1 600 м
[Cu med, cong Cs]
+25.2 +24.1 94 +35 +37 очень
душно
1008.2 1007.1 +24.3 0.0
03 14.09 С 1 20 км 9/3 600 м
[Cu med, cong Cs]
+31.1 +25.0 70 +45 +56 опасность
перегрева
1008.4 1007.3
06 14.09 С 2 20 км 9/5 600 м
[Cu med, cong Cs]
+32.8 +22.8 56 +43 +51 опасность
перегрева
1006.8 1005.7 0.0
09 14.09 С 2 20 км 9/5 600 м
[Cu med, cong Cs]
+31.9 +23.0 59 +42 +44 опасность
перегрева
1005.8 1004.7
12 14.09 штиль 0 20 км 9/4
[Cu med, cong Cs]
+28.7 +25.6 83 +42 +42 опасность
перегрева
1007.6 1006.5 +33.1 0.0
15 14.09 штиль 0 20 км 9/1 600 м
[Cu med, cong Cs]
+27.9 +25.6 87 +41 +41 опасность
перегрева
1009.6 1008.5
18 14.09 СЗ 1 20 км 9/3 800 м
[Cu med, cong Cs]
+26.3 +24.2 88 +37 +37 очень
душно
1008.1 1007.0
21 14.09 СЗ 2 20 км 9/1 600 м
[Cu med, cong Cs]
+25.3 +23.5 90 +34 +34 очень
душно
1007.5 1006.4
00 15.09 СЗ 1 20 км 9/4 600 м
[Cu med, cong Cs]
+25.4 +23.3 88 +34 +35 очень
душно
1008.4 1007.3 +24.5
03 15.09 С 1 20 км 9/3 600 м
[Cu med, cong Cs]
+30.8 +22.9 63 +41 +52 опасность
перегрева
1008.8 1007.7
06 15.09 С 2 20 км 9/5 600 м
[Cu med, cong Cs]
+32.6 +22.5 55 +42 +50 опасность
перегрева
1006.7 1005.6
09 15.09 С 1 10 км слаб. ливневой дождь 9/9 600 м
[Cb cap]
+28.6 +25.7 84 +42 +43 опасность
перегрева
1006.3 1005.2
12 15.09 штиль 0 10 км {ливн. осадки} 9/3 600 м
[Cb cap Cs]
+27.6 +25.0 86 +40 +40 очень
душно
1007.6 1006.5 +32.7 2
15 15.09 штиль 0 10 км 9/1 600 м
[Cu med, cong Cs]
+26.5 +24.9 91 +38 +38 очень
душно
1008.9 1007.8
18 15.09 штиль 0 10 км 9/3 1230 м
[Sc Cs]
+25.9 +24.7 93 +37 +37 очень
душно
1007.7 1006.6
21 15.09 З 1 10 км 9/5 1000 м
[Sc Cs]
+25.5 +24.0 91 +35 +35 очень
душно
1007.2 1006.1
00 16.09 СЗ 1 20 км 9/8 600 м
[Cu Sc Cs]
+26.4 +24.0 87 +37 +37 очень
душно
1008.4 1007.3 +25.3
03 16.09 З 1 20 км 9/6 600 м
[Cu Sc Cs]
+30.0 +24.1 71 +42 +48 опасность
перегрева
1008.8 1007.7
06 16.09 СВ 1 20 км {ливн. осадки} 9/6 600 м
[Cu med, cong Cs]
+31.1 +24.2 67 +43 +51 опасность
перегрева
1006.1 1005.0 1
09 16.09 С 2 20 км 9/3 800 м
[Cu med, cong Cs]
+31.1 +24.4 68 +44 +46 опасность
перегрева
1005.1 1004.0
12 16.09 штиль 0 20 км 9/5 600 м
[Cu Sc Cs]
+28.3 +23.2 74 +38 +38 очень
душно
1006.4 1005.3 +31.7 1
15 16.09 штиль 0 20 км 9/3 800 м
[Cu Sc Cs]
+26.7 +24.7 89 +38 +38 очень
душно
1008.5 1007.4
18 16.09 штиль 0 20 км 9/5 600 м
[Cu Sc Cs]
+25.4 +24.1 93 +35 +35 очень
душно
1007.7 1006.6
21 16.09 штиль 0 20 км 9/3 800 м
[Cu Sc Cs]
+24.5 +23.4 94 +33 +33 очень
душно
1007.3 1006.2
00 17.09 С 1 20 км 9/1 600 м
[Cu med, cong Cs]
+25.2 +23.6 91 +34 +36 очень
душно
1008.4 1007.3 +24.1
03 17.09 С 1 20 км 9/4 600 м
[Cu med, cong Cs]
+31.2 +23.0 62 +41 +51 опасность
перегрева
1009.5 1008.4
06 17.09 С 2 20 км 9/6 800 м
[Cu med, cong Cs]
+33.3 +23.8 58 +45 +51 опасность
перегрева
1007.0 1005.9
09 17.09 С 2 20 км 9/5 600 м
[Cu med, cong Cs]
+32.2 +24.8 65 +45 +47 опасность
перегрева
1005.8 1004.7
12 17.09 С 1 20 км 9/1 600 м
[Cu med, cong Cs]
+29.1 +24.5 76 +41 +41 опасность
перегрева
1008.1 1007.0 +33.3
15 17.09 штиль 0 20 км 9/3 600 м
[Cu med, cong Cs]
+28.1 +25.2 84 +41 +41 опасность
перегрева
1009.2 1008.1
18 17.09 СЗ 1 10 км {ливн. осадки} 9/4 600 м
[Cu Sc Cs]
+26.3 +24.8 91 +37 +37 очень
душно
1007.7 1006.6 2
21 17.09 СЗ 1 10 км 9/3 600 м
[Cu Sc Cs]
+25.5 +24.3 93 +35 +35 очень
душно
1007.5 1006.4
00 18.09 СЗ 1 20 км 9/1
[Cu med, cong Cs]
+26.0 +23.9 88 +36 +38 очень
душно
1008.9 1007.8 +24.9 2
03 18.09 С 2 20 км 9/3 600 м
[Cu med, cong Cs]
+31.0 +24.4 68 +43 +53 опасность
перегрева
1009.9 1008.8
06 18.09 С 3 20 км 9/3 600 м
[Cu med, cong Cs]
+32.5 +24.4 62 +45 +54 опасность
перегрева
1007.3 1006.2 2
09 18.09 СВ 3 20 км 9/3 600 м
[Cu med, cong Cs]
+31.4 +24.8 68 +45 +47 опасность
перегрева
1007.1 1006.0
12 18.09 штиль 0 20 км 9/3 600 м
[Cu med, cong Cs]
+29.1 +25.4 80 +42 +42 опасность
перегрева
1009.4 1008.3 +32.9 2
15 18.09 З 1 10 км {ливн. осадки} 9/5 600 м
[Cu med, cong Cs]
+27.3 +23.6 80 +37 +37 очень
душно
1010.7 1009.6
18 18.09 Ю 2 10 км в посл. час ливневой дождь 9/9 800 м
[Cu Sc]
+26.1 +24.9 93 +37 +37 очень
душно
1009.2 1008.1 6
21 18.09 штиль 0 10 км в посл. час ливневой дождь 9/9 600 м
[Cu Sc]
+26.1 +25.1 94 +37 +37 очень
душно
1009.0 1007.9
00 19.09 штиль 0 20 км {ливн. осадки} 9/5 600 м
[Cu Sc Cs]
+26.1 +25.2 95 +38 +39 очень
душно
1010.5 1009.4 +25.7 8
03 19.09 С 1 20 км 9/4 600 м
[Cu med, cong Cs]
+29.4 +25.0 77 +42 +52 опасность
перегрева
1011.2 1010.1
06 19.09 С 2 20 км гроза без осадков 9/9 800 м
[Cb cap]
+29.8 +24.9 75 +43 +45 опасность
перегрева
1008.9 1007.8
09 19.09 ЮЗ 1 20 км в посл. час гроза 9/6 600 м
[Cb cap Cs]
+27.5 +24.6 84 +39 +40 очень
душно
1008.4 1007.3
12 19.09 штиль 0 10 км слаб. ливневой дождь {гроза} 9/9 600 м
[Cb cap]
+26.8 +25.2 91 +39 +39 очень
душно
1010.0 1008.9 +31.4 0.3
15 19.09 З 1 10 км {ливн. осадки} 9/4 600 м
[Cu med, cong Cs]
+26.2 +25.2 94 +38 +38 очень
душно
1011.3 1010.2
18 19.09 штиль 0 10 км {ливн. осадки} 9/6 600 м
[Cu Sc Cs]
+25.7 +24.5 93 +36 +36 очень
душно
1009.9 1008.8 0.5

 

Местоположение метеостанции Куангнгай (Вьетнам): широта 15.13 долгота 108.78 высота над уровнем моря 9 м.

В архиве по умолчанию представлена погода в Куангнгае за последнюю неделю. Архивные данные за месяц целиком и за предыдущие месяцы, начиная с января 2011 года, Вы можете получить, выбрав интересующий диапазон дат из раскрывающегося списка и нажав кнопку "Ввод!".


*Определитесь, кто Вы:
робот инопланетянин человек

Внимание! Время в таблицах - всемирное. Для получения местного времени необходимо прибавить поправку, которая равна 7 ч.

Смотрите также архив погоды в соседних городах и на ближайших метеорологических станциях:

Погода в Дананге (Вьетнам) (114 км)
Погода в Плейку (Вьетнам) (153 км)
Погода в Куинёне (Вьетнам) (158 км)
Погода в Хюэ (Вьетнам) (193 км)
Погода в Аттапы (Лаос) (213 км)
Погода в Секонге (Лаос) (220 км)
Погода в Сараване (Лаос) (262 км)
Погода в Буонметхуоте (Вьетнам) (283 км)
Погода в Паксе (Лаос) (322 км)
Погода в Нячанге (Вьетнам) (327 км)

Пояснения к столбцам:

Ветер - указаны скорость ветра в м/с - средняя за 10 мин, порывы в срок и между сроками (в фигурных скобках) и направление, откуда дует ветер: С - северный, СВ - северо-восточный, В - восточный, ЮВ - юго-восточный, Ю - южный, ЮЗ - юго-западный, З - западный, СЗ - северо-западный.
Видимость - горизонтальная дальность видимости в метрах или километрах. При видимости от 1 до 10 км при отсутствии осадков обычно наблюдается дымка, при ухудшении видимости до 1 км и менее - туман. В сухую погоду видимость может ухудшаться дымом, пылью или мглою.
Явления - указаны атмосферные явления, наблюдавшиеся в срок или в последний час перед сроком; фигурными скобками обозначены явления, наблюдавшиеся между сроками (за 1-3 часа до срока); квадратными скобками обозначены град или гололедные отложения с указанием их диаметра в мм.
Облачность - указаны через наклонную черту общая и нижняя облачность в баллах и высота нижней границы облаков в метрах; квадратными скобками обозначены формы облаков: Ci - перистые, Cs - перисто-слоистые, Cc - перисто-кучевые, Ac - высококучевые, As - высокослоистые, Sc - слоисто-кучевые, Ns - слоисто-дождевые, Cu - кучевые, Cb - кучево-дождевые. Подробнее классификацию облаков см. в Атласе облаков (PDF).
T - Температура воздуха - температура, измеренная на высоте 2 м над землей.
Td - Температура точки росы - температура, при понижении до которой содержащийся в воздухе водяной пар достигнет насыщения.
f - Относительная влажность воздуха - влажноcть воздуха, измеренная на высоте 2 м над землей.
Te - Эффективная температура - температура, которую ощущает одетый по сезону человек в тени. Характеристика душности погоды. При расчете учитывается влияние влажности воздуха и скорости ветра на теплоощущения человека.
Tes - Эффективная температура на солнце - температура, которую ощущает человек, с поправкой на солнечный нагрев. Характеристика знойности погоды. Зависит от высоты солнца над горизонтом, облачности и скорости ветра. Ночью, в пасмурную погоду, а также при ветре 12 м/с и более поправка равна нулю.
P - Атмосферное давление - приведенное к уровню моря атмосферное давление.
Po - Атмосферное давление - измеренное на уровне метеостанции атмосферное давление.
Tmin - Минимальная температура - минимум температуры воздуха на высоте 2 м над землей.
Tmax - Максимальная температура - максимум температуры воздуха на высоте 2 м над землей.
R - Количество осадков - Количество выпавших осадков за период времени, мм. При наведении курсора мыши на число - период времени, за который выпало указанное количество осадков.
R24 - Количество осадков - Количество выпавших осадков за 24 часа, мм.
S - Снежный покров - Высота снежного покрова, см. При наведении курсора мыши на число - состояние снежного покрова и степень покрытия местности в баллах.